Simultaneous Nadir Overpasses (SNOs) Predictions

Prediction of SNOs over PacNW region [( 10.00, 139.50) to ( 22.70, 165.60)] between NOAA-19 and NPP Satellites:

Table of predicted SNOs over PacNW region for the next 30.0 days since TLE Epoch: 3/2/2013
Index Date (NOAA-19) Time (NOAA-19) NOAA-19 Lat,Lon Date (NPP) Time (NPP) NPP Lat,Lon Distance(km) Time Diff (sec)
1 03/06/2013 14:44:11 16.11, 165.57 03/06/2013 14:45:55 18.12, 162.27 416.50 104
2 03/06/2013 16:24:24 22.61, 141.66 03/06/2013 16:25:55 23.40, 138.19 365.50 91
3 03/07/2013 03:40:54 22.69, 145.08 03/07/2013 03:38:39 22.17, 142.64 258.15 135
4 03/19/2013 03:10:45 17.97, 153.52 03/19/2013 03:12:06 17.22, 150.15 367.03 81
5 03/19/2013 15:47:38 12.43, 149.16 03/19/2013 15:44:42 12.98, 146.74 269.94 176
6 03/31/2013 15:15:55 22.60, 158.91 03/31/2013 15:16:35 23.36, 155.56 353.04 40
7 04/01/2013</
